 35014326,2004-10-26T15:49:08.669, 1143.90, 5073125,   9.71,  29.91, 2574201, 2574878, 2573126, 2575006, 2575833,     475,    0.19,   2.786,    0.65,   23.81,    0.16
 35014327,2004-10-26T15:49:10.669, 1145.90, 5083109,   9.75,  29.83, 2574229, 2574695, 2573278, 2574990, 2575647,     414,   -0.09,   2.653,    3.09,   24.43,    0.16
 35014328,2004-10-26T15:49:12.093, 1147.32, 5089974,   9.78,  29.77, 2574380, 2574835, 2573433, 2575029, 2575658,     378,    0.22,   2.557,    4.29,   25.65,    0.05
 35014329,2004-10-26T15:49:13.517, 1148.74, 5097019,   9.81,  29.72, 2574414, 2575035, 2573612, 2575096, 2575561,     406,    0.43,   2.462,    3.85,   24.21,    0.18
 35014330,2004-10-26T15:49:14.941, 1150.17, 5104574,   9.84,  29.66, 2574502, 2574871, 2573677, 2575054, 2575527,     379,    0.02,   2.368,    3.07,   23.75,    0.20
 35014331,2004-10-26T15:49:16.365, 1151.59, 5111079,   9.87,  29.61, 2574599, 2575034, 2573819, 2575094, 2575515,     374,    0.44,   2.275,    3.80,   25.12,    0.18
 35014332,2004-10-26T15:49:17.789, 1153.02, 5118214,   9.90,  29.56, 2574669, 2575076, 2573970, 2575149, 2575483,     356,    0.41,   2.183,    3.99,   25.21,    0.18
 35014333,2004-10-26T15:49:19.213, 1154.44, 5125199,   9.93,  29.51, 2574816, 2575106, 2574059, 2575143, 2575533,     341,    0.43,   2.089,    3.97,   27.94,    0.17
 35014334,2004-10-26T15:49:20.637, 1155.86, 5132544,   9.96,  29.46, 2574822, 2575082, 2574140, 2575132, 2575451,     304,    0.37,   1.994,    4.39,   26.83,    0.11
 35014335,2004-10-26T15:49:22.061, 1157.29, 5139739,  10.00,  29.41, 2574837, 2575125, 2574256, 2575162, 2575387,     297,    0.42,   1.901,    3.91,   26.67,    0.14
 35014336,2004-10-26T15:49:23.485, 1158.71, 5146605,  10.03,  29.36, 2574945, 2575088, 2574310, 2575136, 2575423,     278,    0.22,   1.810,    4.68,   27.20,    0.12
 35014337,2004-10-26T15:49:24.909, 1160.14, 5153800,  10.06,  29.30, 2575024, 2575132, 2574427, 2575171, 2575434,     250,    0.55,   1.713,    5.12,   28.28,    0.05
 35014338,2004-10-26T15:49:26.333, 1161.56, 5160755,  10.09,  29.25, 2575053, 2575137, 2574493, 2575165, 2575404,     268,    0.37,   1.621,    4.65,   26.58,    0.21
 35014339,2004-10-26T15:49:27.757, 1162.98, 5168370,  10.12,  29.21, 2575092, 2574993, 2574528, 2575133, 2575391,     230,    0.09,   1.531,    5.54,   28.78,    0.15
 35014340,2004-10-26T15:49:29.181, 1164.41, 5175235,  10.16,  29.16, 2575094, 2575069, 2574587, 2575126, 2575346,     226,    0.13,   1.438,    5.17,   28.58,    0.24
 35014341,2004-10-26T15:49:30.669, 1165.90, 5182939,  10.19,  29.11, 2575112, 2575111, 2574679, 2575154, 2575320,     222,    0.33,   1.342,    5.43,   27.41,    0.31
 35014342,2004-10-26T15:49:32.093, 1167.32, 5189925,  10.22,  29.06, 2575141, 2575136, 2574736, 2575159, 2575315,     215,    0.76,   1.258,    5.77,   29.57,    0.15
 35014343,2004-10-26T15:49:33.517, 1168.74, 5196940,  10.25,  29.02, 2575157, 2575314, 2574817, 2575195, 2575304,     195,    0.47,   1.178,    5.79,   29.96,    0.36
 35014344,2004-10-26T15:49:34.941, 1170.17, 5204165,  10.28,  28.98, 2575160, 2575196, 2574859, 2575196, 2575283,     176,    0.77,   1.102,    6.45,   30.74,    0.18
 35014345,2004-10-26T15:49:36.365, 1171.59, 5211600,  10.30,  28.94, 2575166, 2575177, 2574862, 2575163, 2575269,     176,    0.41,   1.032,    6.14,   29.19,    0.34
 35014346,2004-10-26T15:49:37.789, 1173.02, 5218825,  10.32,  28.90, 2575165, 2575089, 2574910, 2575179, 2575252,     156,    0.46,   0.962,    6.14,   30.55,    0.32
 35014347,2004-10-26T15:49:39.213, 1174.44, 5225810,  10.34,  28.86, 2575167, 2575196, 2574957, 2575195, 2575239,     142,    0.93,   0.893,    6.75,   31.05,    0.15
 35014348,2004-10-26T15:49:40.637, 1175.86, 5233035,  10.36,  28.82, 2575185, 2575165, 2574975, 2575187, 2575246,     121,    1.00,   0.829,    7.00,   31.43,    0.13
 35014349,2004-10-26T15:49:42.061, 1177.29, 5240230,  10.38,  28.79, 2575175, 2575203, 2575014, 2575203, 2575226,     114,    1.27,   0.767,    7.94,   33.80,    0.01
 35014350,2004-10-26T15:49:43.485, 1178.71, 5247425,  10.39,  28.75, 2575182, 2575215, 2575059, 2575229, 2575226,      90,    2.18,   0.708,   11.14,   38.03,    0.15
 35014351,2004-10-26T15:49:44.909, 1180.14, 5254740,  10.39,  28.72, 2575169, 2575184, 2575020, 2575177, 2575208,     101,    1.24,   0.672,    8.35,   33.75,    0.02
 35014352,2004-10-26T15:49:46.333, 1181.56, 5261905,  10.39,  28.68, 2575202, 2575207, 2575057, 2575208, 2575239,      87,    1.47,   0.648,   10.16,   37.11,    0.10
 35014353,2004-10-26T15:49:47.757, 1182.98, 5269130,  10.37,  28.65, 2575185, 2575199, 2575057, 2575203, 2575220,      78,    1.38,   0.632,   10.86,   36.69,    0.09
 35014354,2004-10-26T15:49:49.181, 1184.41, 5276355,  10.36,  28.61, 2575260, 2575209, 2575081, 2575225, 2575294,      67,    1.98,   0.624,   11.46,   38.00,    0.17
 35014355,2004-10-26T15:49:50.669, 1185.90, 5283969,  10.33,  28.58, 2575184, 2575197, 2575069, 2575215, 2575219,      67,    2.16,   0.631,    9.85,   36.73,    0.17
 35014356,2004-10-26T15:49:52.093, 1187.32, 5291194,  10.30,  28.54, 2575278, 2575206, 2575079, 2575226, 2575313,      63,    2.13,   0.635,   12.37,   39.81,    0.19
 35014357,2004-10-26T15:49:53.517, 1188.74, 5298449,  10.28,  28.51, 2575193, 2575193, 2575059, 2575208, 2575229,      76,    1.99,   0.638,    9.96,   35.99,    0.15
 35014358,2004-10-26T15:49:54.941, 1190.17, 5305674,  10.25,  28.47, 2575170, 2575212, 2575076, 2575229, 2575207,      74,    2.17,   0.653,   10.52,   37.22,    0.16
 35014359,2004-10-26T15:49:56.365, 1191.59, 5312929,  10.22,  28.43, 2575180, 2575205, 2575070, 2575227, 2575217,      69,    2.42,   0.664,   10.61,   37.63,    0.18
 35014360,2004-10-26T15:49:57.789, 1193.02, 5320214,  10.20,  28.39, 2575183, 2575178, 2575045, 2575205, 2575222,      75,    1.82,   0.674,    8.92,   35.34,    0.13
 35014361,2004-10-26T15:49:59.213, 1194.44, 5327439,  10.18,  28.36, 2575188, 2575212, 2575075, 2575237, 2575228,      67,    1.87,   0.682,   11.67,   36.78,    0.16
 35014362,2004-10-26T15:50:00.637, 1195.86, 5334694,  10.15,  28.33, 2575203, 2575222, 2575073, 2575240, 2575244,      80,    1.97,   0.695,   10.23,   36.30,    0.14
 35014363,2004-10-26T15:50:02.061, 1197.29, 5341919,  10.13,  28.29, 2575204, 2575198, 2575056, 2575226, 2575247,      83,    1.64,   0.707,   10.27,   35.24,    0.07
 35014364,2004-10-26T15:50:03.485, 1198.71, 5349174,  10.10,  28.26, 2575207, 2575227, 2575067, 2575241, 2575251,      89,    1.95,   0.717,   10.52,   35.97,    0.11
 35014365,2004-10-26T15:50:04.909, 1200.14, 5356459,  10.08,  28.23, 2575190, 2575211, 2575034, 2575213, 2575235,     110,    1.41,   0.729,    8.78,   33.91,    0.05
 35014366,2004-10-26T15:50:06.333, 1201.56, 5363714,  10.05,  28.21, 2575197, 2575233, 2575062, 2575243, 2575242,     103,    1.82,   0.735,    7.93,   33.25,    0.10
 35014367,2004-10-26T15:50:07.757, 1202.98, 5370969,  10.02,  28.19, 2575220, 2575232, 2575065, 2575247, 2575266,     103,    2.01,   0.737,    9.06,   34.95,    0.10
 35014368,2004-10-26T15:50:09.181, 1204.41, 5378194,  10.00,  28.17, 2575223, 2575206, 2575033, 2575215, 2575269,     121,    0.94,   0.737,    7.31,   31.76,    0.17
 35014369,2004-10-26T15:50:10.668, 1205.90, 5385869,   9.97,  28.16, 2575223, 2575208, 2575043, 2575224, 2575268,     111,    1.41,   0.734,    8.85,   35.39,    0.03
 35014370,2004-10-26T15:50:12.092, 1207.32, 5393124,   9.94,  28.14, 2575214, 2575253, 2575045, 2575226, 2575260,     127,    0.96,   0.735,    7.17,   33.10,    0.14
 35014371,2004-10-26T15:50:13.516, 1208.74, 5400409,   9.91,  28.12, 2575215, 2575188, 2574982, 2575164, 2575261,     133,    0.37,   0.737,    5.21,   29.74,    0.41
 35014372,2004-10-26T15:50:14.940, 1210.17, 5407604,   9.88,  28.11, 2575233, 2575243, 2575007, 2575188, 2575278,     132,    0.58,   0.734,    6.52,   31.39,    0.44
 35014373,2004-10-26T15:50:16.364, 1211.59, 5414919,   9.86,  28.10, 2575237, 2575191, 2574988, 2575168, 2575282,     124,    0.50,   0.728,    7.17,   32.13,    0.45
 35014374,2004-10-26T15:50:17.788, 1213.02, 5422204,   9.83,  28.08, 2575228, 2575224, 2575011, 2575190, 2575272,     110,    0.59,   0.724,    6.84,   32.01,    0.29
 35014375,2004-10-26T15:50:19.212, 1214.44, 5429549,   9.81,  28.06, 2575236, 2575137, 2575002, 2575181, 2575280,     131,    0.53,   0.724,    8.45,   34.79,    0.40
 35014376,2004-10-26T15:50:20.636, 1215.86, 5436924,   9.78,  28.05, 2575239, 2575224, 2575009, 2575189, 2575283,     119,    0.54,   0.727,    7.46,   34.17,    0.40
 35014377,2004-10-26T15:50:22.060, 1217.29, 5444209,   9.75,  28.03, 2575235, 2575126, 2575002, 2575184, 2575280,     129,    0.56,   0.733,    7.59,   33.03,    0.28
 35014378,2004-10-26T15:50:23.484, 1218.71, 5451494,   9.72,  28.01, 2575233, 2575064, 2574966, 2575151, 2575279,     116,    0.10,   0.740,    6.98,   33.21,    0.30
 35014379,2004-10-26T15:50:24.908, 1220.14, 5458659,   9.68,  28.00, 2575233, 2575160, 2575012, 2575199, 2575279,     105,    0.94,   0.746,    8.53,   33.26,    0.08
 35014380,2004-10-26T15:50:26.332, 1221.56, 5466003,   9.65,  27.98, 2575235, 2575175, 2575029, 2575219, 2575282,      94,    1.41,   0.756,    9.41,   34.24,    0.04
 35014381,2004-10-26T15:50:27.756, 1222.98, 5473318,   9.61,  27.96, 2575231, 2575116, 2574979, 2575174, 2575280,     103,    0.61,   0.767,    8.36,   33.61,    0.06
 35014382,2004-10-26T15:50:29.180, 1224.41, 5480573,   9.57,  27.94, 2575228, 2575139, 2574974, 2575173, 2575279,     118,    0.67,   0.777,    8.39,   34.00,    0.13
 35014383,2004-10-26T15:50:30.668, 1225.90, 5488248,   9.54,  27.93, 2575220, 2575108, 2574948, 2575149, 2575271,     112,    0.43,   0.784,    8.44,   33.37,    0.08
 35014384,2004-10-26T15:50:32.092, 1227.32, 5495533,   9.51,  27.92, 2575214, 2575103, 2574965, 2575168, 2575266,     108,    0.63,   0.790,   10.33,   36.68,    0.04
 35014385,2004-10-26T15:50:33.516, 1228.74, 5502788,   9.47,  27.90, 2575209, 2575126, 2574977, 2575183, 2575262,     104,    0.84,   0.796,    9.33,   33.36,    0.04
 35014386,2004-10-26T15:50:34.940, 1230.17, 5509983,   9.44,  27.88, 2575206, 2575216, 2574977, 2575187, 2575261,     138,    0.80,   0.807,    7.75,   32.61,    0.11
 35014387,2004-10-26T15:50:36.364, 1231.59, 5517388,   9.41,  27.86, 2575198, 2575152, 2574966, 2575179, 2575253,     127,    1.12,   0.812,    8.05,   31.54,    0.11
 35014388,2004-10-26T15:50:37.788, 1233.02, 5524673,   9.38,  27.85, 2575183, 2575167, 2574989, 2575204, 2575239,     104,    1.46,   0.817,   10.48,   35.42,    0.04
 35014389,2004-10-26T15:50:39.212, 1234.44, 5531958,   9.35,  27.83, 2575193, 2575185, 2575004, 2575221, 2575250,     103,    1.96,   0.825,   10.77,   36.91,    0.12
 35014390,2004-10-26T15:50:40.636, 1235.86, 5539303,   9.31,  27.81, 2575204, 2575122, 2574965, 2575187, 2575262,     110,    1.08,   0.835,    9.11,   34.86,    0.02
 35014391,2004-10-26T15:50:42.060, 1237.29, 5546618,   9.27,  27.80, 2575180, 2575188, 2574995, 2575220, 2575239,     109,    1.50,   0.843,   10.63,   34.68,    0.04
 35014392,2004-10-26T15:50:43.484, 1238.71, 5553843,   9.24,  27.78, 2575180, 2575214, 2574991, 2575219, 2575240,     120,    0.96,   0.850,    8.60,   34.11,    0.02
 35014393,2004-10-26T15:50:44.908, 1240.14, 5561128,   9.21,  27.77, 2575158, 2575216, 2575018, 2575248, 2575220,     101,    1.97,   0.854,   11.24,   35.83,    0.12
 35014394,2004-10-26T15:50:46.332, 1241.56, 5568473,   9.18,  27.75, 2575177, 2575206, 2575012, 2575245, 2575239,     105,    1.95,   0.861,   12.00,   38.01,    0.14
 35014395,2004-10-26T15:50:47.756, 1242.98, 5575817,   9.15,  27.73, 2575159, 2575192, 2574987, 2575223, 2575222,     106,    1.56,   0.868,   12.28,   37.48,    0.12
 35014396,2004-10-26T15:50:49.180, 1244.41, 5583072,   9.12,  27.72, 2575158, 2575227, 2574997, 2575237, 2575222,     122,    1.25,   0.876,   10.84,   36.21,    0.03
 35014397,2004-10-26T15:50:50.668, 1245.90, 5590717,   9.08,  27.70, 2575153, 2575237, 2575021, 2575263, 2575218,     117,    1.76,   0.883,   10.13,   34.96,    0.11
 35014398,2004-10-26T15:50:52.092, 1247.32, 5598062,   9.05,  27.68, 2575147, 2575227, 2575034, 2575279, 2575214,      95,    2.77,   0.890,   12.92,   39.24,    0.20
 35014399,2004-10-26T15:50:53.516, 1248.74, 5605347,   9.02,  27.67, 2575144, 2575228, 2574976, 2575224, 2575211,     143,    1.14,   0.895,    8.67,   33.63,    0.01
 35014400,2004-10-26T15:50:54.940, 1250.17, 5612722,   9.00,  27.65, 2575149, 2575202, 2574994, 2575241, 2575216,     115,    2.17,   0.891,   11.09,   35.92,    0.13
 35014401,2004-10-26T15:50:56.364, 1251.59, 5620007,   8.97,  27.64, 2575149, 2575079, 2574934, 2575183, 2575216,     115,    0.91,   0.895,   10.17,   34.63,    0.09
 35014402,2004-10-26T15:50:57.788, 1253.02, 5627352,   8.93,  27.62, 2575158, 2575213, 2574957, 2575209, 2575226,     144,    1.00,   0.902,    8.62,   31.91,    0.07
 35014403,2004-10-26T15:50:59.212, 1254.44, 5634637,   8.91,  27.60, 2575168, 2575226, 2574954, 2575208, 2575238,     150,    1.05,   0.907,    8.69,   32.40,    0.12
 35014404,2004-10-26T15:51:00.636, 1255.86, 5642012,   8.88,  27.59, 2575165, 2575201, 2574971, 2575227, 2575235,     126,    1.26,   0.910,   10.62,   34.87,    0.04
 35014405,2004-10-26T15:51:02.060, 1257.29, 5649476,   8.85,  27.58, 2575186, 2575173, 2574957, 2575215, 2575257,     123,    1.31,   0.914,    9.64,   34.39,    0.05
 35014406,2004-10-26T15:51:03.484, 1258.71, 5656671,   8.82,  27.56, 2575179, 2575224, 2574973, 2575233, 2575251,     139,    1.31,   0.920,    9.05,   33.73,    0.01
 35014407,2004-10-26T15:51:04.908, 1260.14, 5663956,   8.79,  27.54, 2575174, 2575229, 2574974, 2575238, 2575246,     142,    1.63,   0.926,   10.19,   34.53,    0.01
 35014408,2004-10-26T15:51:06.332, 1261.56, 5671301,   8.76,  27.53, 2575170, 2575240, 2574944, 2575209, 2575243,     172,    1.10,   0.931,    8.34,   32.79,    0.13
 35014409,2004-10-26T15:51:07.756, 1262.98, 5678646,   8.73,  27.51, 2575182, 2575196, 2574946, 2575214, 2575256,     130,    0.95,   0.935,   10.10,   33.70,    0.04
 35014410,2004-10-26T15:51:09.180, 1264.41, 5686141,   8.70,  27.50, 2575182, 2575086, 2574901, 2575169, 2575256,     150,    0.63,   0.937,    7.76,   33.49,    0.16
 35014411,2004-10-26T15:51:10.668, 1265.90, 5693696,   8.67,  27.48, 2575176, 2575184, 2574911, 2575181, 2575251,     157,    0.55,   0.941,    7.74,   32.11,    0.29
 35014412,2004-10-26T15:51:12.092, 1267.32, 5701131,   8.64,  27.46, 2575194, 2575259, 2574939, 2575212, 2575270,     143,    1.17,   0.946,    8.93,   35.03,    0.19
 35014413,2004-10-26T15:51:13.516, 1268.74, 5708356,   8.61,  27.45, 2575153, 2575220, 2574968, 2575244, 2575230,     152,    1.77,   0.952,    9.19,   32.34,    0.04
 35014414,2004-10-26T15:51:14.940, 1270.17, 5715671,   8.58,  27.43, 2575166, 2575231, 2574991, 2575269, 2575244,     128,    1.82,   0.956,   11.15,   37.38,    0.12
 35014415,2004-10-26T15:51:16.364, 1271.59, 5723105,   8.56,  27.42, 2575158, 2575172, 2574966, 2575242, 2575235,     112,    1.77,   0.951,    9.75,   33.75,    0.08
 35014416,2004-10-26T15:51:17.788, 1273.02, 5730330,   8.53,  27.41, 2575167, 2575246, 2574940, 2575215, 2575243,     176,    0.96,   0.949,    7.67,   32.70,    0.12
 35014417,2004-10-26T15:51:19.212, 1274.44, 5737765,   8.50,  27.39, 2575147, 2575165, 2574898, 2575175, 2575224,     151,    0.72,   0.954,    7.66,   30.79,    0.20
 35014418,2004-10-26T15:51:20.636, 1275.86, 5745170,   8.48,  27.38, 2575167, 2575237, 2574949, 2575229, 2575244,     161,    1.12,   0.957,    9.25,   33.66,    0.06
 35014419,2004-10-26T15:51:22.060, 1277.29, 5752425,   8.45,  27.36, 2575150, 2575212, 2574907, 2575187, 2575228,     145,    0.44,   0.959,    7.93,   32.31,    0.24
 35014420,2004-10-26T15:51:23.484, 1278.71, 5759800,   8.42,  27.35, 2575143, 2575192, 2574940, 2575221, 2575220,     136,    1.32,   0.960,    9.14,   32.31,    0.04
 35014421,2004-10-26T15:51:24.908, 1280.14, 5767115,   8.40,  27.33, 2575144, 2575222, 2574939, 2575221, 2575222,     156,    1.18,   0.963,    8.00,   30.84,    0.07
 35014422,2004-10-26T15:51:26.332, 1281.56, 5774520,   8.37,  27.32, 2575147, 2575204, 2574948, 2575233, 2575226,     135,    0.93,   0.967,    9.47,   34.44,    0.02
 35014423,2004-10-26T15:51:27.756, 1282.98, 5781805,   8.34,  27.30, 2575144, 2575229, 2574954, 2575240, 2575223,     156,    1.30,   0.969,    9.76,   33.41,    0.00
 35014424,2004-10-26T15:51:29.180, 1284.41, 5789240,   8.32,  27.29, 2575150, 2575197, 2574955, 2575240, 2575229,     121,    1.62,   0.967,   11.01,   35.71,    0.09
 35014425,2004-10-26T15:51:30.668, 1285.90, 5796914,   8.29,  27.28, 2575140, 2575210, 2574897, 2575183, 2575219,     164,    0.70,   0.971,    9.24,   32.28,    0.19
 35014426,2004-10-26T15:51:32.092, 1287.32, 5804259,   8.26,  27.26, 2575142, 2575188, 2574893, 2575181, 2575221,     163,    0.76,   0.972,    9.18,   31.79,    0.14
 35014427,2004-10-26T15:51:33.516, 1288.74, 5811754,   8.24,  27.24, 2575137, 2575117, 2574897, 2575185, 2575217,     132,    1.89,   0.972,    9.01,   34.96,    0.11
 35014428,2004-10-26T15:51:34.940, 1290.17, 5819099,   8.21,  27.23, 2575135, 2575136, 2574903, 2575189, 2575213,     136,    1.14,   0.969,    9.40,   32.55,    0.05
 35014429,2004-10-26T15:51:36.364, 1291.59, 5826414,   8.19,  27.22, 2575141, 2575188, 2574948, 2575233, 2575219,     135,    1.66,   0.966,    9.08,   34.87,    0.09
 35014430,2004-10-26T15:51:37.788, 1293.02, 5833849,   8.17,  27.21, 2575134, 2575120, 2574915, 2575201, 2575212,     114,    1.74,   0.966,    9.68,   35.28,    0.10
 35014431,2004-10-26T15:51:39.212, 1294.44, 5841074,   8.14,  27.19, 2575128, 2575214, 2574899, 2575186, 2575207,     180,    1.06,   0.969,    8.42,   32.46,    0.14
 35014432,2004-10-26T15:51:40.636, 1295.86, 5848689,   8.11,  27.18, 2575117, 2575317, 2574891, 2575179, 2575195,     153,    1.06,   0.970,    7.50,   31.58,    0.12
 35014433,2004-10-26T15:51:42.060, 1297.29, 5855884,   8.09,  27.16, 2575129, 2575181, 2574902, 2575190, 2575207,     165,    1.40,   0.968,    8.58,   31.86,    0.00
 35014434,2004-10-26T15:51:43.484, 1298.71, 5863318,   8.07,  27.15, 2575113, 2575173, 2574921, 2575207, 2575190,     150,    1.55,   0.966,    8.79,   31.86,    0.01
 35014435,2004-10-26T15:51:44.908, 1300.14, 5870603,   8.04,  27.14, 2575120, 2575200, 2574948, 2575236, 2575198,     130,    1.70,   0.969,   11.17,   36.20,    0.08
 35014436,2004-10-26T15:51:46.332, 1301.56, 5878188,   8.01,  27.12, 2575122, 2575149, 2574897, 2575185, 2575200,     140,    1.09,   0.970,    7.82,   31.98,    0.12
 35014437,2004-10-26T15:51:47.756, 1302.98, 5885443,   7.99,  27.11, 2575110, 2575132, 2574875, 2575163, 2575188,     147,    0.86,   0.969,    8.69,   33.52,    0.08
 35014438,2004-10-26T15:51:49.180, 1304.41, 5892758,   7.97,  27.10, 2575123, 2575162, 2574908, 2575195, 2575200,     143,    1.54,   0.967,    9.48,   33.04,    0.02
 35014439,2004-10-26T15:51:50.668, 1305.90, 5900433,   7.94,  27.08, 2575110, 2575189, 2574919, 2575206, 2575187,     147,    1.23,   0.965,    9.10,   32.75,    0.00
 35014440,2004-10-26T15:51:52.092, 1307.32, 5907838,   7.92,  27.06, 2575110, 2575190, 2574866, 2575153, 2575187,     171,    0.71,   0.965,    7.13,   31.73,    0.22
 35014441,2004-10-26T15:51:53.516, 1308.74, 5915212,   7.90,  27.05, 2575119, 2575175, 2574883, 2575170, 2575196,     158,    0.86,   0.966,    8.47,   31.78,    0.18
 35014442,2004-10-26T15:51:54.940, 1310.17, 5922617,   7.87,  27.04, 2575100, 2575180, 2574884, 2575169, 2575176,     148,    0.71,   0.961,    8.69,   32.62,    0.16
 35014443,2004-10-26T15:51:56.364, 1311.59, 5930022,   7.85,  27.03, 2575104, 2575190, 2574964, 2575247, 2575179,     113,    2.18,   0.956,   12.38,   38.23,    0.17
 35014444,2004-10-26T15:51:57.788, 1313.02, 5937427,   7.83,  27.02, 2575111, 2575160, 2574913, 2575194, 2575184,     133,    1.25,   0.952,    8.64,   30.75,    0.05
 35014445,2004-10-26T15:51:59.212, 1314.44, 5944802,   7.81,  27.00, 2575111, 2575146, 2574870, 2575152, 2575184,     140,    0.53,   0.951,    9.51,   33.06,    0.21
 35014446,2004-10-26T15:52:00.636, 1315.86, 5952177,   7.78,  26.99, 2575112, 2575188, 2574953, 2575233, 2575185,     127,    2.01,   0.948,   10.26,   34.40,    0.13
 35014447,2004-10-26T15:52:02.060, 1317.29, 5959582,   7.76,  26.98, 2575107, 2575166, 2574900, 2575180, 2575180,     139,    0.83,   0.946,    8.74,   31.57,    0.13
 35014448,2004-10-26T15:52:03.484, 1318.71, 5966957,   7.74,  26.97, 2575104, 2575190, 2574934, 2575213, 2575176,     126,    1.16,   0.945,   10.51,   35.25,    0.02
 35014449,2004-10-26T15:52:04.908, 1320.14, 5974451,   7.71,  26.95, 2575095, 2575127, 2574904, 2575184, 2575167,     124,    1.62,   0.945,   10.10,   33.35,    0.04
 35014450,2004-10-26T15:52:06.332, 1321.56, 5981766,   7.69,  26.94, 2575095, 2575195, 2574966, 2575244, 2575166,     110,    1.83,   0.941,   12.09,   36.93,    0.13
 35014451,2004-10-26T15:52:07.756, 1322.98, 5989171,   7.67,  26.93, 2575096, 2575254, 2574886, 2575162, 2575166,     124,    0.75,   0.937,    7.70,   31.74,    0.17
 35014452,2004-10-26T15:52:09.180, 1324.41, 5996606,   7.65,  26.92, 2575098, 2575143, 2574907, 2575183, 2575168,     132,    1.47,   0.937,    7.58,   32.39,    0.02
 35014453,2004-10-26T15:52:10.668, 1325.90, 6004281,   7.62,  26.90, 2575108, 2575162, 2574905, 2575179, 2575177,     141,    1.21,   0.931,    9.20,   32.11,    0.06
 35014454,2004-10-26T15:52:12.092, 1327.32, 6011686,   7.60,  26.89, 2575099, 2575155, 2574930, 2575202, 2575167,     117,    1.73,   0.927,    9.54,   33.28,    0.07
 35014455,2004-10-26T15:52:13.516, 1328.74, 6019121,   7.58,  26.88, 2575083, 2575152, 2574902, 2575173, 2575150,     134,    1.37,   0.924,    8.13,   31.92,    0.03
 35014456,2004-10-26T15:52:14.940, 1330.17, 6026495,   7.56,  26.86, 2575099, 2575190, 2574917, 2575187, 2575166,     151,    1.16,   0.922,    7.64,   31.86,    0.06
 35014457,2004-10-26T15:52:16.364, 1331.59, 6033930,   7.54,  26.85, 2575101, 2575182, 2574942, 2575210, 2575167,     121,    1.23,   0.917,   11.13,   35.84,    0.05
 35014458,2004-10-26T15:52:17.788, 1333.02, 6041395,   7.52,  26.84, 2575104, 2575128, 2574931, 2575198, 2575169,     118,    1.95,   0.913,    9.36,   34.50,    0.08
 35014459,2004-10-26T15:52:19.212, 1334.44, 6048800,   7.50,  26.83, 2575094, 2575122, 2574908, 2575173, 2575159,     121,    1.41,   0.910,    8.64,   33.54,    0.05
 35014460,2004-10-26T15:52:20.636, 1335.86, 6056265,   7.48,  26.82, 2575093, 2575111, 2574912, 2575176, 2575157,     120,    1.16,   0.909,    8.51,   32.12,    0.08
 35014461,2004-10-26T15:52:22.060, 1337.29, 6063610,   7.46,  26.81, 2575108, 2575146, 2574932, 2575194, 2575171,     121,    1.39,   0.902,   10.39,   35.49,    0.07
 35014462,2004-10-26T15:52:23.484, 1338.71, 6071075,   7.44,  26.80, 2575102, 2575070, 2574900, 2575157, 2575163,     124,    1.03,   0.892,    7.02,   30.65,    0.16
 35014463,2004-10-26T15:52:24.908, 1340.14, 6078419,   7.41,  26.78, 2575090, 2575157, 2574961, 2575220, 2575152,      94,    2.55,   0.895,   11.10,   37.23,    0.20
 35014464,2004-10-26T15:52:26.332, 1341.56, 6085854,   7.40,  26.77, 2575102, 2575158, 2574932, 2575188, 2575162,     118,    0.93,   0.887,    7.83,   32.06,    0.02
 35014465,2004-10-26T15:52:27.756, 1342.98, 6093229,   7.38,  26.77, 2575100, 2575169, 2574929, 2575181, 2575159,     126,    0.98,   0.878,    8.64,   33.51,    0.02
 35014466,2004-10-26T15:52:29.180, 1344.41, 6100664,   7.36,  26.75, 2575092, 2575144, 2574920, 2575172, 2575151,     122,    1.40,   0.876,    7.33,   32.06,    0.03
 35014467,2004-10-26T15:52:30.668, 1345.90, 6108429,   7.34,  26.74, 2575083, 2575022, 2574893, 2575141, 2575140,     105,    0.74,   0.868,    6.42,   30.94,    0.17